Regional Weather Roundup
Issued by NWS

Home | Current Version | Previous Version | Graphics & Text | Print | Product List | Glossary On
Versions: 1 2 3 4 5 6 7 8 9 10 11 12 13 14 15 16 17 18 19 20 21 22 23 24 25 26 27 28 29 30 31 32 33 34 35 36 37 38 39 40 41 42 43 44 45 46 47 48 49 50
000
ASUS45 KTFX 020119
RWRMT
MONTANA HOURLY WEATHER ROUNDUP
NATIONAL WEATHER SERVICE GREAT FALLS MT
719 PM MDT MON SEP 1 2014

NOTE: "FAIR" INDICATES FEW OR NO CLOUDS BELOW 12000 FEET WITH NO
SIGNIFICANT WEATHER AND/OR OBSTRUCTIONS TO VISIBILITY.

* THESE STATIONS ARE NOT UNDER NWS QUALITY CONTROL. THEY DO NOT
   REPORT WEATHER SUCH AS PRECIPITATION OR FOG.

MTZ001>007-043-020200-
WEST OF THE DIVIDE
CITY           SKY/WX    TMP DP  RH WIND       PRES   REMARKS
KALISPELL      CLOUDY    66  39  37 W13       29.95S
MISSOULA       CLEAR     70  37  30 NW16      29.99S
BUTTE          CLEAR     64  34  33 NW15G20   30.04R
MULLAN PASS    CLEAR     48  37  66 VRB6      30.09F
* LINCOLN      N/A       65  34  32 SW7G18     N/A
* LOOKOUT PASS N/A       56  38  51 E8         N/A
* POLSON       N/A       66  37  34 W3G8       N/A
* RONAN APT    CLEAR     68  37  32 N/A        N/A
* SEELEY LAKE  N/A       66  37  34 NW8G16     N/A
* THOMP F APT  CLEAR     64  34  33 SW9G18     N/A
$$

MTZ008-052>055-020200-
SOUTHWEST MONTANA
CITY           SKY/WX    TMP DP  RH WIND       PRES   REMARKS
BOZEMAN        CLEAR     70  36  29 CALM      29.98S
DILLON         CLEAR     68  34  28 W9        30.01F
W YELLOWSTONE  PTCLDY    57  39  51 SW14G20   30.12S
* THREE FORKS  CLEAR     72  46  40 N/A        N/A
* BOULDER HILL N/A       63  27  26 S6G17      N/A
* MONIDA PASS  N/A       60  33  36 S13G18     N/A
* RAYNOLDS PAS N/A       60  47  62 S14        N/A
* WHITEHALL    N/A       72  33  24 NW7        N/A
* WISE RIVER   N/A       66  31  27 W15G22     N/A
$$

MTZ009>010-012-014-046-048-049-054-020200-
EAST SLOPES AND CENTRAL MONTANA
CITY           SKY/WX    TMP DP  RH WIND       PRES   REMARKS
CUT BANK       PTCLDY    63  39  41 SW21G26   29.90S
GREAT FALLS    CLEAR     68  34  28 W20G25    29.90R
HELENA         FAIR      72  36  27 W13       29.96R
MALMSTROM AFB  CLEAR     68  36  31 W16G23    29.91S
* CONRAD       CLEAR     66  39  37 SW16G24    N/A
* EAST GLACIER N/A       58  38  47 W17G27     N/A
* MONARCH      N/A       60  26  27 W16G27     N/A
* PENDROY      N/A       63  35  35 W16        N/A
* ROGERS PASS  N/A       58  33  39 SE11G19    N/A
* SAINT MARY   N/A       59  38  46 SW9G22     N/A
* SWEET GRASS  N/A       64  37  37 W20G30     N/A
* WHITE SULPH  N/A       65  37  36 W5G14      N/A
$$

MTZ011-013-016-021-035-040-045-047-050-051-020200-
NORTH CENTRAL MONTANA
CITY           SKY/WX    TMP DP  RH WIND       PRES   REMARKS
HAVRE          PTCLDY    70  34  27 W18       29.81S
LEWISTOWN      CLOUDY    66  36  33 W8        29.93S
* CHINOOK      MOCLDY    72  41  33 W7        29.80F
* FORT BENTON  PTCLDY    72  36  27 W9        29.87R
* CHESTER      N/A       68  35  30 W13G25     N/A
* DENTON       N/A       68  35  30 W12G17     N/A
* GEYSER       N/A       65  33  30 W16G29     N/A
* JUDITH GAP   N/A       65  35  33 W11G16     N/A
* LOMA         N/A       70  36  29 W13G23     N/A
$$

MTZ017>020-022>027-061-062-020200-
NORTHEAST MONTANA
CITY           SKY/WX    TMP DP  RH WIND       PRES   REMARKS
GLASGOW        PTCLDY    64  48  56 S7        29.82F
GLENDIVE       PTCLDY    63  50  63 W5        29.88S
JORDAN         PTCLDY    66  43  43 W8        29.86S
SIDNEY         PTCLDY    61  52  72 SW6       29.85S
WOLF POINT     LGT RAIN  63  54  73 N8        29.84F
* BEAVER HILL  N/A       64  46  52 S6         N/A
* CIRCLE       N/A       65  47  52 NW3        N/A
* LINDSAY DVD  N/A       63  45  52 W6         N/A
* NAVAJO       N/A       66  44  45 W8         N/A
* SACO         N/A       72  41  33 SW14       N/A
$$

MTZ028>042-056>058-020200-
SOUTHCENTRAL AND SOUTHEAST MONTANA
CITY           SKY/WX    TMP DP  RH WIND       PRES   REMARKS
BAKER          PTCLDY    64  48  56 SW3       29.90S
BILLINGS       PTCLDY    72  34  25 NW8       29.93S
LIVINGSTON     CLEAR     68  36  31 W12       29.97S
MILES CITY     PTCLDY    72  37  28 NW12      29.88S
* LAUREL APT   CLEAR     72  36  27 NW5        N/A
* ROUNDUP APT  CLEAR     70  34  27 SW10G15    N/A
* ALZADA       N/A       64  44  48 W9G14      N/A
* HYSHAM       N/A       70  35  28 VRB1G6     N/A
* LAME DEER    N/A       64  34  33 NW7        N/A
* REED POINT   N/A       71  35  27 W14G23     N/A
* ROSCOE HILL  N/A       62  33  34 SE8        N/A
$$

REGIONAL REPORTS...DAKOTAS
CITY           SKY/WX    TMP DP  RH WIND       PRES   REMARKS
WILLISTON      PTCLDY    66  46  49 W7        29.82S
DICKINSON      CLEAR     63  48  58 W6        29.86R
BEACH          N/A       61  46  58 W3        29.89R
CROSBY         CLEAR     63  46  54 W6        29.80S
TIOGA          MOCLDY    63  46  54 W8        29.85S
WATFORD CITY   PTCLDY    63  46  54 W5        29.82S
BISMARCK       PTCLDY    68  48  49 NW3       29.83R
GRAND FORKS    FAIR      64  57  78 CALM      29.73R
FARGO          PTCLDY    64  55  73 E8        29.75R
BUFFALO SD     PTCLDY    64  46  52 E6        29.86R
RAPID CITY     PTCLDY    64  52  65 NE3       29.96R
$$

REGIONAL REPORTS...WYOMING/IDAHO/WASHINGTON
CITY           SKY/WX    TMP DP  RH WIND       PRES   REMARKS
GILLETTE       CLEAR     61  43  52 W6        30.01R
SHERIDAN       CLEAR     63  46  54 SW3       29.98R
CODY           PTCLDY   N/A N/A N/A N/A        N/A
YELLOWSTONE LA CLEAR     54  34  47 VRB3      30.21S
SALMON         CLEAR     70  45  41 W6        29.95F
MULLAN PASS    CLEAR     48  37  66 VRB6      30.09S
SAND POINT     CLOUDY    68  43  40 CALM      29.96S
SPOKANE        FAIR      72  37  28 W14       29.97F
$$

REGIONAL REPORTS...ALBERTA
CITY           SKY/WX    TMP DP  RH WIND       PRES   REMARKS
CALGARY        MOCLDY    64  32  30 W20G25    29.78R
LETHBRIDGE     FAIR      64  39  40 W26G36    29.81S
MEDICINE HAT   MOCLDY    70  41  35 W5        29.74F
EDMONTON       LGT RAIN  54  50  86 W7        29.75S
WATERTON GATE  N/A       59  36  42 SW21G31    N/A
CARDSTON       N/A       61  41  48 W10G17     N/A
MILK RIVER     N/A       64  39  40 W20G26     N/A
$$

REGIONAL REPORTS...SASKATCHEWAN
CITY           SKY/WX    TMP DP  RH WIND       PRES   REMARKS
SWIFT CURRENT  MOCLDY    64  43  47 SW12G17   29.76S
REGINA         MOCLDY    63  48  58 NW5       29.76F
VAL MARIE      N/A       63  43  48 W8         N/A
ASSINIBOIA     N/A       63  39  41 SW3        N/A

$$



USA.gov is the U.S. government's official web portal to all federal, state and local government web resources and services.